User: anonymous   Login
Location: Caltech
(34.1382°N, 118.1253°W)
Time: 09:07:20
(UTC-08:00)
Language:

Cosmos 1943 Rocket - Orbit

View from above orbital plane
View from above orbital plane
View from above satellite
View from above satellite

Ground track
Ground track

The orbit data is extracted from the following two-line orbital elements,

1 19120U 88039B   14330.86796244 -.00000000  00000-0  22871-4 0  2132
2 19120 071.0144 136.8383 0021660 185.3155 276.2638 14.19066806373982
Epoch (UTC): 26 November 2014 20:49:51
Eccentricity: 0.0021660
inclination: 71.0144°
perigee height: 813 km
apogee height: 844 km
right ascension of ascending node: 136.8383°
argument of perigee: 185.3155°
revolutions per day: 14.19066806
mean anomaly at epoch: 276.2638°
orbit number at epoch: 37398

The dashed part of the orbit path shows where the satellite is in the earth's shadow,  

DLR